Regional Weather Roundup
Issued by NWS

Home | Current Version | Previous Version | Text Only | Print | Product List | Glossary Off
Versions: 1 2 3 4 5 6 7 8 9 10 11 12 13 14 15 16 17 18 19 20 21 22 23 24 25 26 27 28 29 30 31 32 33 34 35 36 37 38 39 40 41 42 43 44 45 46 47 48 49 50

730
ASUS43 KLSX 031510
RWRMO

WEATHER SUMMARY FOR MISSOURI
NATIONAL WEATHER SERVICE SPRINGFIELD MO
900 AM CST SAT DEC 03 2016

NOTE: "FAIR" INDICATES FEW OR NO CLOUDS BELOW 12,000 FEET WITH NO
       SIGNIFICANT WEATHER AND/OR OBSTRUCTIONS TO VISIBILITY.
       CURRENT SKY AND/OR WEATHER CONDITIONS ARE NOT AVAILABLE FOR
       CHILLICOTHE AND FARMINGTON.

MOZ001>031-035>038-043-044-053-054-031600-
...NORTHERN AND WESTERN MISSOURI...

CITY           SKY/WX    TMP DP  RH WIND       PRES   REMARKS
KANSAS CTY INT CLOUDY    36  29  75 SE9       30.30R WCI  29
KANSAS C DTWN  CLOUDY    36  31  82 NE3       30.31R
LEE`S SUMMIT   PTSUNNY   36  30  79 E8        30.30R WCI  30
ST JOSEPH      CLOUDY    31  28  89 CALM      30.31R
CHILLICOTHE      N/A     34  31  88 CALM      30.34R
KIRKSVILLE     MOSUNNY   32  30  92 E6        30.33S WCI  26

$$
MOZ066>068-077>081-088>096-101>105-031600-
...SOUTHWEST MISSOURI...

CITY           SKY/WX    TMP DP  RH WIND       PRES   REMARKS
SPRINGFIELD    CLOUDY    45  30  55 SE12      30.25F
JOPLIN         MOSUNNY   46  33  60 SE8       30.23S
BRANSON        CLOUDY    41  32  70 SE7       30.27S

$$
MOZ032>034-039>042-045>050-055>058-069>072-031600-
...CENTRAL MISSOURI...

CITY           SKY/WX    TMP DP  RH WIND       PRES   REMARKS
COLUMBIA       MOSUNNY   35  30  82 E7        30.32F WCI  29
JEFFERSON CITY MOSUNNY   30  27  88 CALM      30.34S
ROLLA          CLOUDY    35  29  78 E7        30.31R WCI  29
SEDALIA        PTSUNNY   36  29  75 E5        30.31
WHITEMAN AFB   CLOUDY    36  33  90 SE6       30.29F
WARRENSBURG    CLOUDY    32  30  93 CALM      30.30F
OSAGE BEACH    CLOUDY    36  28  73 E5        30.32S

$$
MOZ051-052-059>065-031600-
...EAST CENTRAL MISSOURI...

CITY           SKY/WX    TMP DP  RH WIND       PRES   REMARKS
ST LOUIS INTL  PTSUNNY   39  32  76 E6        30.37R
SPIRIT OF STL  MOSUNNY   35  32  88 CALM      30.37R
ST CHARLES     MOSUNNY   36  35  96 E3        30.38R

$$
MOZ072>076-082>087-097>100-106>115-031600-
...SOUTH CENTRAL AND SOUTHEAST MISSOURI...

CITY           SKY/WX    TMP DP  RH WIND       PRES   REMARKS
CAPE GIRARDEAU MOSUNNY   39  32  76 E5        30.37R
FARMINGTON     CLOUDY    33  31  92 CALM      30.36R
POPLAR BLUFF   CLOUDY    41  35  79 NE6       30.35R
WEST PLAINS    CLOUDY    39  32  76 E7        30.31S

$$




USA.gov is the U.S. government's official web portal to all federal, state and local government web resources and services.